Time,TemperatureF,DewpointF,PressureIn,WindDirection,WindDirectionDegrees,WindSpeedMPH,WindSpeedGustMPH,Humidity,HourlyPrecipIn,Conditions,Clouds,dailyrainin,SoftwareType,DateUTC
2013-04-13 00:00:00,53.3,37.9,29.76,NNW,338,2.0,4.9,56,0.00,,,0.00,WUHU216HW,2013-04-13 04:00:00,
2013-04-13 00:05:00,53.1,37.7,29.76,NE,45,1.8,6.3,56,0.00,,,0.00,WUHU216HW,2013-04-13 04:05:00,
2013-04-13 00:10:00,52.9,37.1,29.77,WNW,293,3.1,6.3,55,0.00,,,0.00,WUHU216HW,2013-04-13 04:10:00,
2013-04-13 00:15:00,52.9,37.6,29.77,North,0,3.1,6.3,56,0.00,,,0.00,WUHU216HW,2013-04-13 04:15:00,
2013-04-13 00:20:00,52.7,37.5,29.77,WNW,293,3.4,6.3,56,0.00,,,0.00,WUHU216HW,2013-04-13 04:20:00,
2013-04-13 00:25:00,52.7,36.9,29.78,North,0,5.6,5.6,55,0.00,,,0.00,WUHU216HW,2013-04-13 04:25:00,
2013-04-13 00:30:00,52.6,37.3,29.78,NW,315,4.9,6.9,56,0.00,,,0.00,WUHU216HW,2013-04-13 04:30:00,
2013-04-13 00:35:00,52.6,36.8,29.78,NW,315,5.4,6.9,55,0.00,,,0.00,WUHU216HW,2013-04-13 04:35:00,
2013-04-13 00:40:00,52.4,36.2,29.78,NNW,338,6.7,6.7,54,0.00,,,0.00,WUHU216HW,2013-04-13 04:40:00,
2013-04-13 00:45:00,52.4,36.2,29.78,NW,315,6.3,6.7,54,0.00,,,0.00,WUHU216HW,2013-04-13 04:45:00,
2013-04-13 00:50:00,52.6,36.4,29.78,NNW,338,5.4,6.3,54,0.00,,,0.00,WUHU216HW,2013-04-13 04:50:00,
2013-04-13 00:55:00,52.6,35.8,29.78,NW,315,6.3,7.4,53,0.00,,,0.00,WUHU216HW,2013-04-13 04:55:00,
2013-04-13 01:00:00,52.7,36.0,29.78,NW,315,4.0,8.7,53,0.00,,,0.00,WUHU216HW,2013-04-13 05:00:00,
2013-04-13 01:07:00,52.2,36.0,29.78,NNW,338,5.4,6.5,54,0.00,,,0.00,WUHU216HW,2013-04-13 05:07:00,
2013-04-13 01:12:00,52.4,35.3,29.78,WNW,293,4.7,8.3,52,0.00,,,0.00,WUHU216HW,2013-04-13 05:12:00,
2013-04-13 01:17:00,52.2,35.6,29.78,NW,315,4.7,8.3,53,0.00,,,0.00,WUHU216HW,2013-04-13 05:17:00,
2013-04-13 01:22:00,52.0,35.8,29.79,NNW,338,2.5,4.7,54,0.00,,,0.00,WUHU216HW,2013-04-13 05:22:00,
2013-04-13 01:27:00,52.0,35.8,29.79,NW,315,2.0,4.5,54,0.00,,,0.00,WUHU216HW,2013-04-13 05:27:00,
2013-04-13 01:32:00,51.7,35.5,29.79,NNW,338,1.8,3.1,54,0.00,,,0.00,WUHU216HW,2013-04-13 05:32:00,
2013-04-13 01:37:00,51.5,35.3,29.79,NNW,338,1.1,2.7,54,0.00,,,0.00,WUHU216HW,2013-04-13 05:37:00,
2013-04-13 01:42:00,51.3,35.2,29.79,NNW,338,2.2,2.2,54,0.00,,,0.00,WUHU216HW,2013-04-13 05:42:00,
2013-04-13 01:47:00,51.3,34.8,29.79,NW,315,1.8,2.2,53,0.00,,,0.00,WUHU216HW,2013-04-13 05:47:00,
2013-04-13 01:52:00,51.1,34.6,29.78,NW,315,1.8,2.2,53,0.00,,,0.00,WUHU216HW,2013-04-13 05:52:00,
2013-04-13 01:57:00,51.1,35.0,29.78,NNW,338,1.8,2.2,54,0.00,,,0.00,WUHU216HW,2013-04-13 05:57:00,
2013-04-13 02:02:00,50.9,34.8,29.78,NW,315,2.5,3.8,54,0.00,,,0.00,WUHU216HW,2013-04-13 06:02:00,
2013-04-13 02:07:00,51.1,34.6,29.78,NW,315,1.8,3.8,53,0.00,,,0.00,WUHU216HW,2013-04-13 06:07:00,
2013-04-13 02:12:00,51.1,34.6,29.78,NW,315,1.3,3.8,53,0.00,,,0.00,WUHU216HW,2013-04-13 06:12:00,
2013-04-13 02:17:00,50.8,34.2,29.78,NNW,338,0.4,1.8,53,0.00,,,0.00,WUHU216HW,2013-04-13 06:17:00,
2013-04-13 02:22:00,50.8,35.1,29.79,SSW,203,0.0,1.3,55,0.00,,,0.00,WUHU216HW,2013-04-13 06:22:00,
2013-04-13 02:27:00,50.4,34.8,29.79,SSW,203,0.0,0.7,55,0.00,,,0.00,WUHU216HW,2013-04-13 06:27:00,
2013-04-13 02:32:00,50.0,34.9,29.79,North,0,0.4,0.4,56,0.00,,,0.00,WUHU216HW,2013-04-13 06:32:00,
2013-04-13 02:38:00,49.9,34.7,29.78,NW,315,0.2,0.7,56,0.00,,,0.00,WUHU216HW,2013-04-13 06:38:00,
2013-04-13 02:43:00,49.7,34.6,29.78,NW,315,0.0,0.7,56,0.00,,,0.00,WUHU216HW,2013-04-13 06:43:00,
2013-04-13 02:48:00,49.3,34.8,29.78,NW,315,0.4,0.7,57,0.00,,,0.00,WUHU216HW,2013-04-13 06:48:00,
2013-04-13 02:53:00,49.3,34.8,29.78,NW,315,0.0,0.4,57,0.00,,,0.00,WUHU216HW,2013-04-13 06:53:00,
2013-04-13 02:58:00,49.1,34.6,29.78,NNW,338,0.0,0.7,57,0.00,,,0.00,WUHU216HW,2013-04-13 06:58:00,
2013-04-13 03:03:00,49.1,35.0,29.78,NNW,338,0.4,1.8,58,0.00,,,0.00,WUHU216HW,2013-04-13 07:03:00,
2013-04-13 03:08:00,48.8,34.7,29.78,NNW,338,3.6,3.6,58,0.00,,,0.00,WUHU216HW,2013-04-13 07:08:00,
2013-04-13 03:13:00,49.5,34.4,29.79,WNW,293,3.4,3.6,56,0.00,,,0.00,WUHU216HW,2013-04-13 07:13:00,
2013-04-13 03:19:00,50.4,34.8,29.79,NW,315,3.1,3.6,55,0.00,,,0.00,WUHU216HW,2013-04-13 07:19:00,
2013-04-13 03:24:00,51.1,35.0,29.79,West,270,2.5,3.1,54,0.00,,,0.00,WUHU216HW,2013-04-13 07:24:00,
2013-04-13 03:29:00,51.3,34.8,29.79,WNW,293,3.6,3.6,53,0.00,,,0.00,WUHU216HW,2013-04-13 07:29:00,
2013-04-13 03:34:00,51.5,34.8,29.79,NW,315,2.0,4.5,53,0.00,,,0.00,WUHU216HW,2013-04-13 07:34:00,
2013-04-13 03:39:00,51.7,35.0,29.79,WNW,293,1.6,4.5,53,0.00,,,0.00,WUHU216HW,2013-04-13 07:39:00,
2013-04-13 03:44:00,51.7,35.0,29.79,WNW,293,2.5,3.8,53,0.00,,,0.00,WUHU216HW,2013-04-13 07:44:00,
2013-04-13 03:49:00,51.8,34.7,29.79,West,270,1.3,2.9,52,0.00,,,0.00,WUHU216HW,2013-04-13 07:49:00,
2013-04-13 03:54:00,52.2,34.7,29.79,NW,315,5.4,5.4,51,0.00,,,0.00,WUHU216HW,2013-04-13 07:54:00,
2013-04-13 03:59:00,52.2,35.1,29.80,West,270,3.1,5.4,52,0.00,,,0.00,WUHU216HW,2013-04-13 07:59:00,
2013-04-13 04:04:00,52.2,34.7,29.80,West,270,2.7,3.4,51,0.00,,,0.00,WUHU216HW,2013-04-13 08:04:00,
2013-04-13 04:09:00,52.2,34.7,29.79,West,270,3.8,4.0,51,0.00,,,0.00,WUHU216HW,2013-04-13 08:09:00,
2013-04-13 04:14:00,52.4,35.3,29.80,West,270,0.9,4.0,52,0.00,,,0.00,WUHU216HW,2013-04-13 08:14:00,
2013-04-13 04:19:00,52.2,34.7,29.79,NW,315,3.1,4.0,51,0.00,,,0.00,WUHU216HW,2013-04-13 08:19:00,
2013-04-13 04:24:00,52.4,34.7,29.79,WSW,248,2.0,4.0,51,0.00,,,0.00,WUHU216HW,2013-04-13 08:24:00,
2013-04-13 04:29:00,52.2,35.1,29.80,WSW,248,0.7,2.5,52,0.00,,,0.00,WUHU216HW,2013-04-13 08:29:00,
2013-04-13 04:35:00,51.8,34.3,29.80,NW,315,2.5,8.5,51,0.00,,,0.00,WUHU216HW,2013-04-13 08:35:00,
2013-04-13 04:40:00,52.0,34.9,29.80,NW,315,1.8,8.5,52,0.00,,,0.00,WUHU216HW,2013-04-13 08:40:00,
2013-04-13 04:45:00,51.7,35.0,29.81,NW,315,1.8,1.8,53,0.00,,,0.00,WUHU216HW,2013-04-13 08:45:00,
2013-04-13 04:50:00,51.5,34.4,29.80,NNW,338,2.0,2.7,52,0.00,,,0.00,WUHU216HW,2013-04-13 08:50:00,
2013-04-13 04:55:00,51.7,34.1,29.81,West,270,3.4,3.4,51,0.00,,,0.00,WUHU216HW,2013-04-13 08:55:00,
2013-04-13 05:01:00,51.8,33.8,29.81,NNW,338,5.8,5.8,50,0.00,,,0.00,WUHU216HW,2013-04-13 09:01:00,
2013-04-13 05:06:00,51.8,34.3,29.81,NW,315,2.2,5.8,51,0.00,,,0.00,WUHU216HW,2013-04-13 09:06:00,
2013-04-13 05:11:00,51.7,34.1,29.81,NW,315,3.1,3.1,51,0.00,,,0.00,WUHU216HW,2013-04-13 09:11:00,
2013-04-13 05:16:00,51.7,34.1,29.81,NW,315,3.1,3.4,51,0.00,,,0.00,WUHU216HW,2013-04-13 09:16:00,
2013-04-13 05:21:00,51.5,33.9,29.81,NW,315,3.1,4.0,51,0.00,,,0.00,WUHU216HW,2013-04-13 09:21:00,
2013-04-13 05:26:00,51.5,34.4,29.81,WNW,293,1.3,4.0,52,0.00,,,0.00,WUHU216HW,2013-04-13 09:26:00,
2013-04-13 05:32:00,51.3,34.3,29.81,NNW,338,1.8,3.1,52,0.00,,,0.00,WUHU216HW,2013-04-13 09:32:00,
2013-04-13 05:37:00,51.1,34.1,29.82,WNW,293,2.0,3.1,52,0.00,,,0.00,WUHU216HW,2013-04-13 09:37:00,
2013-04-13 05:42:00,51.1,34.6,29.82,NW,315,1.6,3.1,53,0.00,,,0.00,WUHU216HW,2013-04-13 09:42:00,
2013-04-13 05:47:00,50.9,34.4,29.82,North,0,2.5,2.7,53,0.00,,,0.00,WUHU216HW,2013-04-13 09:47:00,
2013-04-13 05:52:00,50.9,34.4,29.82,NW,315,2.0,4.5,53,0.00,,,0.00,WUHU216HW,2013-04-13 09:52:00,
2013-04-13 05:57:00,51.1,34.1,29.82,NW,315,2.9,4.5,52,0.00,,,0.00,WUHU216HW,2013-04-13 09:57:00,
2013-04-13 06:02:00,51.3,34.3,29.82,NW,315,2.7,3.4,52,0.00,,,0.00,WUHU216HW,2013-04-13 10:02:00,
2013-04-13 06:07:00,51.5,34.4,29.82,NNW,338,0.9,3.4,52,0.00,,,0.00,WUHU216HW,2013-04-13 10:07:00,
2013-04-13 06:12:00,51.3,34.3,29.83,NW,315,1.1,2.5,52,0.00,,,0.00,WUHU216HW,2013-04-13 10:12:00,
2013-04-13 06:18:00,51.1,34.6,29.83,SSW,203,0.4,1.1,53,0.00,,,0.00,WUHU216HW,2013-04-13 10:18:00,
2013-04-13 06:23:00,50.8,34.2,29.83,South,180,0.9,0.9,53,0.00,,,0.00,WUHU216HW,2013-04-13 10:23:00,
2013-04-13 06:30:00,50.4,34.8,29.84,South,180,0.0,0.9,55,0.00,,,0.00,WUHU216HW,2013-04-13 10:30:00,
2013-04-13 06:35:00,50.2,34.7,29.84,South,180,0.2,0.4,55,0.00,,,0.00,WUHU216HW,2013-04-13 10:35:00,
2013-04-13 06:40:00,50.0,34.9,29.84,WNW,293,1.6,1.6,56,0.00,,,0.00,WUHU216HW,2013-04-13 10:40:00,
2013-04-13 06:45:00,50.0,35.4,29.84,NE,45,1.3,2.2,57,0.00,,,0.00,WUHU216HW,2013-04-13 10:45:00,
2013-04-13 06:50:00,49.9,35.6,29.84,NW,315,0.0,2.2,58,0.00,,,0.00,WUHU216HW,2013-04-13 10:50:00,
2013-04-13 06:56:00,49.7,35.0,29.84,NNE,23,1.3,1.3,57,0.00,,,0.00,WUHU216HW,2013-04-13 10:56:00,
2013-04-13 07:01:00,49.7,35.5,29.84,NNE,23,0.7,1.8,58,0.00,,,0.00,WUHU216HW,2013-04-13 11:01:00,
2013-04-13 07:06:00,49.7,35.5,29.85,NNE,23,0.7,1.8,58,0.00,,,0.00,WUHU216HW,2013-04-13 11:06:00,
2013-04-13 07:11:00,49.5,35.3,29.85,NNE,23,0.4,1.1,58,0.00,,,0.00,WUHU216HW,2013-04-13 11:11:00,
2013-04-13 07:16:00,49.7,36.4,29.85,NNE,23,0.4,0.7,60,0.00,,,0.00,WUHU216HW,2013-04-13 11:16:00,
2013-04-13 07:22:00,49.5,36.3,29.85,East,90,2.0,2.0,60,0.00,,,0.00,WUHU216HW,2013-04-13 11:22:00,
2013-04-13 07:27:00,49.3,37.3,29.86,WNW,293,0.2,2.0,63,0.00,,,0.00,WUHU216HW,2013-04-13 11:27:00,
2013-04-13 07:32:00,49.3,36.8,29.86,North,0,1.1,2.0,62,0.00,,,0.00,WUHU216HW,2013-04-13 11:32:00,
2013-04-13 07:37:00,49.7,35.5,29.86,NNW,338,2.5,2.5,58,0.00,,,0.00,WUHU216HW,2013-04-13 11:37:00,
2013-04-13 07:42:00,50.2,34.7,29.86,NW,315,1.8,4.0,55,0.00,,,0.00,WUHU216HW,2013-04-13 11:42:00,
2013-04-13 07:47:00,50.9,34.8,29.86,WNW,293,3.1,4.0,54,0.00,,,0.00,WUHU216HW,2013-04-13 11:47:00,
2013-04-13 07:52:00,51.1,34.1,29.87,NW,315,5.4,6.9,52,0.00,,,0.00,WUHU216HW,2013-04-13 11:52:00,
2013-04-13 07:57:00,51.5,34.4,29.87,NW,315,2.9,6.9,52,0.00,,,0.00,WUHU216HW,2013-04-13 11:57:00,
2013-04-13 08:02:00,51.5,33.9,29.87,WNW,293,5.4,5.4,51,0.00,,,0.00,WUHU216HW,2013-04-13 12:02:00,
2013-04-13 08:07:00,51.8,34.3,29.88,WNW,293,2.2,6.3,51,0.00,,,0.00,WUHU216HW,2013-04-13 12:07:00,
2013-04-13 08:12:00,52.0,34.0,29.88,NW,315,3.1,6.3,50,0.00,,,0.00,WUHU216HW,2013-04-13 12:12:00,
2013-04-13 08:17:00,52.2,34.2,29.88,NW,315,4.5,4.5,50,0.00,,,0.00,WUHU216HW,2013-04-13 12:17:00,
2013-04-13 08:22:00,52.6,35.8,29.88,North,0,4.7,4.7,53,0.00,,,0.00,WUHU216HW,2013-04-13 12:22:00,
2013-04-13 08:27:00,52.7,36.0,29.89,West,270,0.7,4.7,53,0.00,,,0.00,WUHU216HW,2013-04-13 12:27:00,
2013-04-13 08:33:00,52.9,35.7,29.89,NW,315,3.4,3.4,52,0.00,,,0.00,WUHU216HW,2013-04-13 12:33:00,
2013-04-13 08:38:00,53.1,36.4,29.89,NNE,23,2.0,4.9,53,0.00,,,0.00,WUHU216HW,2013-04-13 12:38:00,
2013-04-13 08:43:00,53.5,36.3,29.89,NW,315,2.7,4.9,52,0.00,,,0.00,WUHU216HW,2013-04-13 12:43:00,
2013-04-13 08:48:00,53.6,35.9,29.89,NNW,338,1.8,3.6,51,0.00,,,0.00,WUHU216HW,2013-04-13 12:48:00,
2013-04-13 08:53:00,53.8,35.1,29.89,WNW,293,4.5,4.5,49,0.00,,,0.00,WUHU216HW,2013-04-13 12:53:00,
2013-04-13 08:58:00,53.8,34.5,29.89,NW,315,3.1,4.7,48,0.00,,,0.00,WUHU216HW,2013-04-13 12:58:00,
2013-04-13 09:03:00,54.2,34.3,29.89,WNW,293,3.1,4.7,47,0.00,,,0.00,WUHU216HW,2013-04-13 13:03:00,
2013-04-13 09:08:00,54.2,34.3,29.89,North,0,4.7,4.7,47,0.00,,,0.00,WUHU216HW,2013-04-13 13:08:00,
2013-04-13 09:13:00,54.5,34.0,29.89,NW,315,3.6,5.6,46,0.00,,,0.00,WUHU216HW,2013-04-13 13:13:00,
2013-04-13 09:18:00,54.5,34.0,29.89,WNW,293,2.9,5.6,46,0.00,,,0.00,WUHU216HW,2013-04-13 13:18:00,
2013-04-13 09:23:00,54.7,34.7,29.89,NNW,338,4.3,5.4,47,0.00,,,0.00,WUHU216HW,2013-04-13 13:23:00,
2013-04-13 09:29:00,54.9,33.9,29.89,WSW,248,4.7,5.4,45,0.00,,,0.00,WUHU216HW,2013-04-13 13:29:00,
2013-04-13 09:34:00,55.3,34.7,29.89,NW,315,3.8,4.7,46,0.00,,,0.00,WUHU216HW,2013-04-13 13:34:00,
2013-04-13 09:39:00,55.6,34.5,29.89,WNW,293,4.7,5.8,45,0.00,,,0.00,WUHU216HW,2013-04-13 13:39:00,
2013-04-13 09:44:00,55.3,33.6,29.89,NW,315,4.5,5.8,44,0.00,,,0.00,WUHU216HW,2013-04-13 13:44:00,
2013-04-13 09:49:00,55.8,35.2,29.89,NNW,338,5.4,5.8,46,0.00,,,0.00,WUHU216HW,2013-04-13 13:49:00,
2013-04-13 09:54:00,55.8,34.7,29.89,WNW,293,5.6,6.7,45,0.00,,,0.00,WUHU216HW,2013-04-13 13:54:00,
2013-04-13 09:59:00,55.8,34.1,29.89,North,0,4.9,6.7,44,0.00,,,0.00,WUHU216HW,2013-04-13 13:59:00,
2013-04-13 10:04:00,55.8,34.7,29.89,NW,315,5.6,6.9,45,0.00,,,0.00,WUHU216HW,2013-04-13 14:04:00,
2013-04-13 10:09:00,55.8,34.7,29.89,WNW,293,2.5,6.9,45,0.00,,,0.00,WUHU216HW,2013-04-13 14:09:00,
2013-04-13 10:14:00,56.2,34.4,29.89,NW,315,6.3,6.3,44,0.00,,,0.00,WUHU216HW,2013-04-13 14:14:00,
2013-04-13 10:19:00,56.5,34.7,29.89,NW,315,4.0,6.3,44,0.00,,,0.00,WUHU216HW,2013-04-13 14:19:00,
2013-04-13 10:24:00,57.1,34.7,29.89,North,0,5.6,6.5,43,0.00,,,0.00,WUHU216HW,2013-04-13 14:24:00,
2013-04-13 10:30:00,57.6,35.2,29.89,NW,315,2.0,6.5,43,0.00,,,0.00,WUHU216HW,2013-04-13 14:30:00,
2013-04-13 10:36:00,57.6,35.2,29.89,NW,315,2.0,4.3,43,0.00,,,0.00,WUHU216HW,2013-04-13 14:36:00,
2013-04-13 11:00:00,57.2,35.5,29.90,West,270,2.9,2.9,44,0.00,,,0.00,WUHU216HW,2013-04-13 15:00:00,
2013-04-13 11:05:00,57.1,34.7,29.90,North,0,4.0,6.7,43,0.00,,,0.00,WUHU216HW,2013-04-13 15:05:00,
2013-04-13 11:10:00,57.1,35.8,29.90,NW,315,2.5,6.7,45,0.00,,,0.00,WUHU216HW,2013-04-13 15:10:00,
2013-04-13 11:15:00,57.2,35.5,29.89,NW,315,4.5,6.3,44,0.00,,,0.00,WUHU216HW,2013-04-13 15:15:00,
2013-04-13 11:20:00,57.6,35.2,29.89,North,0,2.7,6.3,43,0.00,,,0.00,WUHU216HW,2013-04-13 15:20:00,
2013-04-13 11:25:00,58.1,35.6,29.89,North,0,4.0,4.7,43,0.00,,,0.00,WUHU216HW,2013-04-13 15:25:00,
2013-04-13 11:30:00,57.8,34.7,29.89,NW,315,5.1,8.1,42,0.00,,,0.00,WUHU216HW,2013-04-13 15:30:00,
2013-04-13 11:35:00,58.1,35.6,29.89,NW,315,3.8,8.1,43,0.00,,,0.00,WUHU216HW,2013-04-13 15:35:00,
2013-04-13 11:40:00,58.7,35.0,29.89,NW,315,3.4,6.9,41,0.00,,,0.00,WUHU216HW,2013-04-13 15:40:00,
2013-04-13 11:45:00,59.2,35.5,29.89,NNW,338,4.0,7.6,41,0.00,,,0.00,WUHU216HW,2013-04-13 15:45:00,
2013-04-13 11:50:00,59.4,35.6,29.89,WNW,293,2.0,7.6,41,0.00,,,0.00,WUHU216HW,2013-04-13 15:50:00,
2013-04-13 11:56:00,60.5,36.0,29.89,WNW,293,1.8,5.4,40,0.00,,,0.00,WUHU216HW,2013-04-13 15:56:00,
2013-04-13 12:01:00,60.7,35.5,29.89,West,270,5.4,5.4,39,0.00,,,0.00,WUHU216HW,2013-04-13 16:01:00,
2013-04-13 12:06:00,61.2,37.3,29.88,NNW,338,3.4,5.4,41,0.00,,,0.00,WUHU216HW,2013-04-13 16:06:00,
2013-04-13 12:11:00,60.8,36.9,29.89,NNW,338,2.9,5.4,41,0.00,,,0.00,WUHU216HW,2013-04-13 16:11:00,
2013-04-13 12:16:00,60.8,36.9,29.88,WNW,293,2.0,5.4,41,0.00,,,0.00,WUHU216HW,2013-04-13 16:16:00,
2013-04-13 12:22:00,61.4,36.8,29.88,NW,315,2.0,4.0,40,0.00,,,0.00,WUHU216HW,2013-04-13 16:22:00,
2013-04-13 12:27:00,61.6,37.0,29.88,WNW,293,2.9,4.7,40,0.00,,,0.00,WUHU216HW,2013-04-13 16:27:00,
2013-04-13 12:32:00,61.4,35.4,29.88,North,0,0.9,4.7,38,0.00,,,0.00,WUHU216HW,2013-04-13 16:32:00,
2013-04-13 12:37:00,62.3,36.9,29.88,SSW,203,6.5,6.5,39,0.00,,,0.00,WUHU216HW,2013-04-13 16:37:00,
2013-04-13 12:42:00,63.0,36.9,29.88,SSW,203,3.6,7.8,38,0.00,,,0.00,WUHU216HW,2013-04-13 16:42:00,
2013-04-13 12:47:00,62.8,37.5,29.88,WNW,293,3.6,7.8,39,0.00,,,0.00,WUHU216HW,2013-04-13 16:47:00,
2013-04-13 12:52:00,63.2,37.7,29.88,SW,225,4.0,4.3,39,0.00,,,0.00,WUHU216HW,2013-04-13 16:52:00,
2013-04-13 12:57:00,63.9,36.3,29.88,South,180,3.4,4.7,36,0.00,,,0.00,WUHU216HW,2013-04-13 16:57:00,
2013-04-13 13:02:00,63.2,36.3,29.87,SE,135,2.0,4.7,37,0.00,,,0.00,WUHU216HW,2013-04-13 17:02:00,
2013-04-13 13:08:00,63.4,36.5,29.87,NNW,338,0.2,3.4,37,0.00,,,0.00,WUHU216HW,2013-04-13 17:08:00,
2013-04-13 13:13:00,63.7,36.8,29.87,NNW,338,6.3,6.3,37,0.00,,,0.00,WUHU216HW,2013-04-13 17:13:00,
2013-04-13 13:18:00,64.8,39.3,29.87,SW,225,5.6,6.9,39,0.00,,,0.00,WUHU216HW,2013-04-13 17:18:00,
2013-04-13 13:24:00,65.7,37.9,29.86,SW,225,4.0,6.9,36,0.00,,,0.00,WUHU216HW,2013-04-13 17:24:00,
2013-04-13 13:29:00,66.4,39.3,29.86,NW,315,1.8,7.2,37,0.00,,,0.00,WUHU216HW,2013-04-13 17:29:00,
2013-04-13 13:34:00,66.2,39.1,29.86,WSW,248,10.7,11.0,37,0.00,,,0.00,WUHU216HW,2013-04-13 17:34:00,
2013-04-13 13:39:00,66.4,38.5,29.85,SSW,203,4.7,11.0,36,0.00,,,0.00,WUHU216HW,2013-04-13 17:39:00,
2013-04-13 13:44:00,66.4,38.5,29.85,SSW,203,4.7,8.1,36,0.00,,,0.00,WUHU216HW,2013-04-13 17:44:00,
2013-04-13 13:49:00,66.6,39.3,29.85,SSW,203,6.5,10.5,37,0.00,,,0.00,WUHU216HW,2013-04-13 17:49:00,
2013-04-13 13:54:00,67.0,39.7,29.84,SW,225,8.5,10.5,37,0.00,,,0.00,WUHU216HW,2013-04-13 17:54:00,
2013-04-13 13:59:00,66.8,38.8,29.84,South,180,9.2,10.5,36,0.00,,,0.00,WUHU216HW,2013-04-13 17:59:00,
2013-04-13 14:05:00,67.0,39.7,29.84,SW,225,8.1,9.2,37,0.00,,,0.00,WUHU216HW,2013-04-13 18:05:00,
2013-04-13 14:10:00,66.8,38.8,29.84,SW,225,7.4,8.9,36,0.00,,,0.00,WUHU216HW,2013-04-13 18:10:00,
2013-04-13 14:15:00,66.8,37.4,29.84,WNW,293,1.3,8.1,34,0.00,,,0.00,WUHU216HW,2013-04-13 18:15:00,
2013-04-13 14:20:00,67.0,38.3,29.84,SSW,203,6.7,9.8,35,0.00,,,0.00,WUHU216HW,2013-04-13 18:20:00,
2013-04-13 14:25:00,67.3,39.2,29.84,SW,225,4.3,9.8,36,0.00,,,0.00,WUHU216HW,2013-04-13 18:25:00,
2013-04-13 14:27:00,67.3,40.0,29.84,WSW,248,5.4,9.8,37,0.00,,,0.00,WUHU216HW,2013-04-13 18:27:00,
2013-04-13 14:32:00,68.0,39.2,29.83,SSW,203,5.4,5.4,35,0.00,,,0.00,WUHU216HW,2013-04-13 18:32:00,
2013-04-13 14:38:00,68.2,38.6,29.83,NW,315,1.6,7.4,34,0.00,,,0.00,WUHU216HW,2013-04-13 18:38:00,
2013-04-13 14:43:00,68.0,38.4,29.83,NW,315,3.4,7.4,34,0.00,,,0.00,WUHU216HW,2013-04-13 18:43:00,
2013-04-13 14:48:00,67.3,36.4,29.83,NW,315,4.3,7.4,32,0.00,,,0.00,WUHU216HW,2013-04-13 18:48:00,
2013-04-13 14:53:00,66.6,37.2,29.83,NW,315,3.4,5.4,34,0.00,,,0.00,WUHU216HW,2013-04-13 18:53:00,
2013-04-13 14:58:00,67.1,37.6,29.82,West,270,1.8,4.0,34,0.00,,,0.00,WUHU216HW,2013-04-13 18:58:00,
2013-04-13 15:03:00,68.0,37.7,29.82,North,0,0.4,3.8,33,0.00,,,0.00,WUHU216HW,2013-04-13 19:03:00,
2013-04-13 15:10:00,68.4,38.0,29.82,SW,225,4.0,4.0,33,0.00,,,0.00,WUHU216HW,2013-04-13 19:10:00,
2013-04-13 15:15:00,68.8,38.4,29.82,SW,225,6.0,6.0,33,0.00,,,0.00,WUHU216HW,2013-04-13 19:15:00,
2013-04-13 15:20:00,68.9,37.7,29.82,WNW,293,2.2,7.6,32,0.00,,,0.00,WUHU216HW,2013-04-13 19:20:00,
2013-04-13 15:25:00,68.4,36.6,29.82,West,270,2.5,7.6,31,0.00,,,0.00,WUHU216HW,2013-04-13 19:25:00,
2013-04-13 15:30:00,68.8,38.4,29.82,NNW,338,1.6,6.5,33,0.00,,,0.00,WUHU216HW,2013-04-13 19:30:00,
2013-04-13 15:35:00,69.3,38.8,29.82,NW,315,5.4,5.4,33,0.00,,,0.00,WUHU216HW,2013-04-13 19:35:00,
2013-04-13 15:40:00,69.5,39.0,29.82,WSW,248,4.7,7.4,33,0.00,,,0.00,WUHU216HW,2013-04-13 19:40:00,
2013-04-13 15:45:00,69.8,37.8,29.81,NNE,23,1.6,7.4,31,0.00,,,0.00,WUHU216HW,2013-04-13 19:45:00,
2013-04-13 15:50:00,69.8,39.3,29.81,SW,225,2.2,5.4,33,0.00,,,0.00,WUHU216HW,2013-04-13 19:50:00,
2013-04-13 15:55:00,69.8,38.5,29.81,NW,315,1.8,3.6,32,0.00,,,0.00,WUHU216HW,2013-04-13 19:55:00,
2013-04-13 16:00:00,69.8,38.5,29.81,WSW,248,6.5,6.7,32,0.00,,,0.00,WUHU216HW,2013-04-13 20:00:00,
2013-04-13 16:04:00,69.7,38.4,29.81,SSW,203,7.2,7.2,32,0.00,,,0.00,WUHU216HW,2013-04-13 20:04:00,
2013-04-13 16:09:00,69.7,39.2,29.81,SSW,203,0.4,7.2,33,0.00,,,0.00,WUHU216HW,2013-04-13 20:09:00,
2013-04-13 16:15:00,69.8,38.5,29.81,WSW,248,1.1,4.0,32,0.00,,,0.00,WUHU216HW,2013-04-13 20:15:00,
2013-04-13 16:20:00,70.4,39.8,29.80,West,270,8.3,8.3,33,0.00,,,0.00,WUHU216HW,2013-04-13 20:20:00,
2013-04-13 16:25:00,70.2,38.9,29.81,SW,225,1.6,8.3,32,0.00,,,0.00,WUHU216HW,2013-04-13 20:25:00,
2013-04-13 16:27:00,70.0,38.7,29.81,WSW,248,8.5,8.5,32,0.00,,,0.00,WUHU216HW,2013-04-13 20:27:00,
2013-04-13 16:30:00,70.0,38.7,29.81,WSW,248,8.5,10.5,32,0.00,,,0.00,WUHU216HW,2013-04-13 20:30:00,
2013-04-13 16:35:00,70.0,38.7,29.81,WSW,248,8.5,10.5,32,0.00,,,0.00,WUHU216HW,2013-04-13 20:35:00,
2013-04-13 16:57:00,68.9,39.3,29.79,WSW,248,3.4,3.4,34,0.00,,,0.00,WUHU216HW,2013-04-13 20:57:00,
2013-04-13 17:02:00,69.3,38.8,29.79,WNW,293,2.5,5.1,33,0.00,,,0.00,WUHU216HW,2013-04-13 21:02:00,
2013-04-13 17:08:00,69.8,39.3,29.79,SSW,203,3.1,6.7,33,0.00,,,0.00,WUHU216HW,2013-04-13 21:08:00,
2013-04-13 17:13:00,69.8,38.5,29.79,SSE,158,1.8,6.7,32,0.00,,,0.00,WUHU216HW,2013-04-13 21:13:00,
2013-04-13 17:18:00,69.7,38.4,29.80,SSW,203,5.8,6.9,32,0.00,,,0.00,WUHU216HW,2013-04-13 21:18:00,
2013-04-13 17:23:00,69.7,39.2,29.79,WSW,248,4.5,6.9,33,0.00,,,0.00,WUHU216HW,2013-04-13 21:23:00,
2013-04-13 17:28:00,69.7,38.4,29.79,West,270,3.4,6.0,32,0.00,,,0.00,WUHU216HW,2013-04-13 21:28:00,
2013-04-13 17:33:00,69.7,39.2,29.80,SW,225,5.6,6.9,33,0.00,,,0.00,WUHU216HW,2013-04-13 21:33:00,
2013-04-13 17:38:00,69.8,39.3,29.79,South,180,1.3,6.9,33,0.00,,,0.00,WUHU216HW,2013-04-13 21:38:00,
2013-04-13 17:43:00,69.8,39.3,29.80,SSW,203,4.5,4.5,33,0.00,,,0.00,WUHU216HW,2013-04-13 21:43:00,
2013-04-13 17:48:00,69.8,38.5,29.80,South,180,3.1,4.5,32,0.00,,,0.00,WUHU216HW,2013-04-13 21:48:00,
2013-04-13 17:53:00,69.7,36.9,29.80,NNW,338,0.9,3.8,30,0.00,,,0.00,WUHU216HW,2013-04-13 21:53:00,
2013-04-13 17:58:00,70.0,32.2,29.80,WNW,293,4.0,6.9,25,0.00,,,0.00,WUHU216HW,2013-04-13 21:58:00,
2013-04-13 18:03:00,70.2,33.4,29.80,NNW,338,3.1,6.9,26,0.00,,,0.00,WUHU216HW,2013-04-13 22:03:00,
2013-04-13 18:08:00,69.8,32.0,29.80,NNW,338,2.2,5.8,25,0.00,,,0.00,WUHU216HW,2013-04-13 22:08:00,
2013-04-13 18:13:00,69.7,31.9,29.81,NNW,338,4.3,6.9,25,0.00,,,0.00,WUHU216HW,2013-04-13 22:13:00,
2013-04-13 18:18:00,69.3,30.6,29.81,West,270,5.4,6.9,24,0.00,,,0.00,WUHU216HW,2013-04-13 22:18:00,
2013-04-13 18:23:00,68.9,31.3,29.81,NNW,338,5.4,6.5,25,0.00,,,0.00,WUHU216HW,2013-04-13 22:23:00,
2013-04-13 18:28:00,69.1,30.4,29.81,NNW,338,5.6,6.5,24,0.00,,,0.00,WUHU216HW,2013-04-13 22:28:00,
2013-04-13 18:33:00,69.3,31.6,29.81,NW,315,4.0,6.3,25,0.00,,,0.00,WUHU216HW,2013-04-13 22:33:00,
2013-04-13 18:38:00,69.5,31.8,29.81,NW,315,3.1,6.5,25,0.00,,,0.00,WUHU216HW,2013-04-13 22:38:00,
2013-04-13 18:43:00,69.1,30.4,29.82,WNW,293,6.3,6.5,24,0.00,,,0.00,WUHU216HW,2013-04-13 22:43:00,
2013-04-13 18:48:00,68.8,29.2,29.82,SSW,203,4.0,6.3,23,0.00,,,0.00,WUHU216HW,2013-04-13 22:48:00,
2013-04-13 18:53:00,68.4,30.8,29.82,NW,315,4.0,7.4,25,0.00,,,0.00,WUHU216HW,2013-04-13 22:53:00,
2013-04-13 18:58:00,68.0,30.5,29.82,NW,315,2.5,7.4,25,0.00,,,0.00,WUHU216HW,2013-04-13 22:58:00,
2013-04-13 19:03:00,68.0,30.5,29.82,NNW,338,3.6,5.4,25,0.00,,,0.00,WUHU216HW,2013-04-13 23:03:00,
2013-04-13 19:08:00,67.5,31.1,29.82,NNW,338,2.5,4.9,26,0.00,,,0.00,WUHU216HW,2013-04-13 23:08:00,
2013-04-13 19:13:00,67.1,29.7,29.82,North,0,4.3,4.9,25,0.00,,,0.00,WUHU216HW,2013-04-13 23:13:00,
2013-04-13 19:18:00,66.6,30.3,29.82,NNW,338,1.8,6.3,26,0.00,,,0.00,WUHU216HW,2013-04-13 23:18:00,
2013-04-13 19:23:00,66.1,29.8,29.83,WSW,248,1.8,6.3,26,0.00,,,0.00,WUHU216HW,2013-04-13 23:23:00,
2013-04-13 19:28:00,65.7,29.5,29.82,NW,315,2.7,5.6,26,0.00,,,0.00,WUHU216HW,2013-04-13 23:28:00,
2013-04-13 19:33:00,65.3,29.3,29.83,NW,315,4.7,5.6,26,0.00,,,0.00,WUHU216HW,2013-04-13 23:33:00,
2013-04-13 19:38:00,65.0,28.9,29.83,NNW,338,4.0,5.4,26,0.00,,,0.00,WUHU216HW,2013-04-13 23:38:00,
2013-04-13 19:43:00,64.8,29.7,29.83,NW,315,3.1,4.7,27,0.00,,,0.00,WUHU216HW,2013-04-13 23:43:00,
2013-04-13 19:48:00,64.3,30.2,29.84,NW,315,2.0,4.3,28,0.00,,,0.00,WUHU216HW,2013-04-13 23:48:00,
2013-04-13 19:53:00,64.1,29.2,29.84,NW,315,1.8,3.6,27,0.00,,,0.00,WUHU216HW,2013-04-13 23:53:00,
2013-04-13 19:58:00,63.7,28.8,29.84,WNW,293,3.1,4.5,27,0.00,,,0.00,WUHU216HW,2013-04-13 23:58:00,
2013-04-13 20:03:00,63.4,28.5,29.84,NW,315,3.4,4.5,27,0.00,,,0.00,WUHU216HW,2013-04-14 00:03:00,
2013-04-13 20:08:00,63.0,29.2,29.85,NW,315,1.6,3.4,28,0.00,,,0.00,WUHU216HW,2013-04-14 00:08:00,
2013-04-13 20:13:00,62.8,29.0,29.84,NNW,338,1.8,3.4,28,0.00,,,0.00,WUHU216HW,2013-04-14 00:13:00,
2013-04-13 20:18:00,62.5,28.7,29.85,NW,315,2.2,3.4,28,0.00,,,0.00,WUHU216HW,2013-04-14 00:18:00,
2013-04-13 20:23:00,62.3,29.5,29.85,NW,315,2.2,3.4,29,0.00,,,0.00,WUHU216HW,2013-04-14 00:23:00,
2013-04-13 20:28:00,61.9,29.2,29.85,WNW,293,1.3,2.2,29,0.00,,,0.00,WUHU216HW,2013-04-14 00:28:00,
2013-04-13 20:33:00,61.6,28.9,29.85,WNW,293,1.6,1.8,29,0.00,,,0.00,WUHU216HW,2013-04-14 00:33:00,
2013-04-13 20:38:00,61.6,28.9,29.85,NNW,338,3.4,3.4,29,0.00,,,0.00,WUHU216HW,2013-04-14 00:38:00,
2013-04-13 20:43:00,61.6,28.9,29.86,NW,315,2.9,3.4,29,0.00,,,0.00,WUHU216HW,2013-04-14 00:43:00,
2013-04-13 20:48:00,61.6,28.9,29.86,NW,315,2.5,3.1,29,0.00,,,0.00,WUHU216HW,2013-04-14 00:48:00,
2013-04-13 20:53:00,61.4,27.7,29.86,WNW,293,1.6,3.1,28,0.00,,,0.00,WUHU216HW,2013-04-14 00:53:00,
2013-04-13 20:58:00,61.2,28.5,29.87,NW,315,1.6,2.7,29,0.00,,,0.00,WUHU216HW,2013-04-14 00:58:00,
2013-04-13 21:04:00,61.0,28.4,29.87,NNW,338,2.2,3.4,29,0.00,,,0.00,WUHU216HW,2013-04-14 01:04:00,
2013-04-13 21:09:00,60.8,29.2,29.87,NW,315,1.8,3.6,30,0.00,,,0.00,WUHU216HW,2013-04-14 01:09:00,
2013-04-13 21:14:00,60.5,28.9,29.87,NW,315,1.8,3.6,30,0.00,,,0.00,WUHU216HW,2013-04-14 01:14:00,
2013-04-13 21:19:00,60.1,27.6,29.88,NW,315,2.9,2.9,29,0.00,,,0.00,WUHU216HW,2013-04-14 01:19:00,
2013-04-13 21:24:00,60.1,28.6,29.88,NW,315,2.0,3.4,30,0.00,,,0.00,WUHU216HW,2013-04-14 01:24:00,
2013-04-13 21:29:00,59.9,27.5,29.88,NNW,338,2.5,3.8,29,0.00,,,0.00,WUHU216HW,2013-04-14 01:29:00,
2013-04-13 21:34:00,59.9,27.5,29.88,NW,315,2.2,3.8,29,0.00,,,0.00,WUHU216HW,2013-04-14 01:34:00,
2013-04-13 21:39:00,59.8,28.3,29.89,NW,315,1.3,3.4,30,0.00,,,0.00,WUHU216HW,2013-04-14 01:39:00,
2013-04-13 21:44:00,59.4,27.0,29.89,NNW,338,1.3,2.2,29,0.00,,,0.00,WUHU216HW,2013-04-14 01:44:00,
2013-04-13 21:49:00,59.2,27.9,29.89,NNW,338,1.1,1.8,30,0.00,,,0.00,WUHU216HW,2013-04-14 01:49:00,
2013-04-13 21:54:00,58.9,28.3,29.89,NNW,338,1.3,1.6,31,0.00,,,0.00,WUHU216HW,2013-04-14 01:54:00,
2013-04-13 21:59:00,58.5,27.9,29.89,NNW,338,0.7,1.3,31,0.00,,,0.00,WUHU216HW,2013-04-14 01:59:00,
2013-04-13 22:04:00,58.0,27.5,29.89,NNW,338,0.9,1.3,31,0.00,,,0.00,WUHU216HW,2013-04-14 02:04:00,
2013-04-13 22:09:00,57.6,27.8,29.90,North,0,0.4,0.9,32,0.00,,,0.00,WUHU216HW,2013-04-14 02:09:00,
2013-04-13 22:14:00,57.1,27.4,29.90,NW,315,0.7,1.1,32,0.00,,,0.00,WUHU216HW,2013-04-14 02:14:00,
2013-04-13 22:19:00,56.7,27.7,29.90,NNW,338,0.7,1.1,33,0.00,,,0.00,WUHU216HW,2013-04-14 02:19:00,
2013-04-13 22:24:00,56.3,27.4,29.91,NNW,338,1.3,1.3,33,0.00,,,0.00,WUHU216HW,2013-04-14 02:24:00,
2013-04-13 22:29:00,56.0,27.8,29.91,NNW,338,1.1,1.3,34,0.00,,,0.00,WUHU216HW,2013-04-14 02:29:00,
2013-04-13 22:34:00,55.8,26.9,29.91,NNW,338,1.6,1.6,33,0.00,,,0.00,WUHU216HW,2013-04-14 02:34:00,
2013-04-13 22:39:00,55.8,26.9,29.91,NNW,338,1.3,1.8,33,0.00,,,0.00,WUHU216HW,2013-04-14 02:39:00,
2013-04-13 22:44:00,55.8,27.6,29.91,NW,315,1.1,1.8,34,0.00,,,0.00,WUHU216HW,2013-04-14 02:44:00,
2013-04-13 22:49:00,55.6,27.5,29.91,NNW,338,1.6,1.6,34,0.00,,,0.00,WUHU216HW,2013-04-14 02:49:00,
2013-04-13 22:54:00,55.4,27.3,29.91,NNW,338,1.8,2.0,34,0.00,,,0.00,WUHU216HW,2013-04-14 02:54:00,
2013-04-13 22:59:00,55.4,28.0,29.92,NNW,338,1.8,2.9,35,0.00,,,0.00,WUHU216HW,2013-04-14 02:59:00,
2013-04-13 23:04:00,55.3,28.5,29.92,NNW,338,1.1,2.9,36,0.00,,,0.00,WUHU216HW,2013-04-14 03:04:00,
2013-04-13 23:09:00,55.1,28.4,29.92,NW,315,1.8,2.7,36,0.00,,,0.00,WUHU216HW,2013-04-14 03:09:00,
2013-04-13 23:14:00,55.1,28.4,29.92,NNW,338,2.7,2.7,36,0.00,,,0.00,WUHU216HW,2013-04-14 03:14:00,
2013-04-13 23:19:00,55.1,28.4,29.92,NNW,338,1.8,2.7,36,0.00,,,0.00,WUHU216HW,2013-04-14 03:19:00,
2013-04-13 23:24:00,54.9,28.9,29.92,NNW,338,2.0,2.5,37,0.00,,,0.00,WUHU216HW,2013-04-14 03:24:00,
2013-04-13 23:29:00,54.7,28.8,29.92,North,0,1.3,2.5,37,0.00,,,0.00,WUHU216HW,2013-04-14 03:29:00,
2013-04-13 23:34:00,54.5,28.6,29.92,NNW,338,1.1,1.8,37,0.00,,,0.00,WUHU216HW,2013-04-14 03:34:00,
2013-04-13 23:39:00,54.4,28.4,29.92,NNW,338,1.1,1.8,37,0.00,,,0.00,WUHU216HW,2013-04-14 03:39:00,
2013-04-13 23:44:00,54.4,29.2,29.92,NNW,338,1.1,1.8,38,0.00,,,0.00,WUHU216HW,2013-04-14 03:44:00,
2013-04-13 23:49:00,53.8,28.7,29.92,NNW,338,0.9,1.6,38,0.00,,,0.00,WUHU216HW,2013-04-14 03:49:00,
2013-04-13 23:54:00,53.5,29.1,29.93,NNW,338,0.7,1.6,39,0.00,,,0.00,WUHU216HW,2013-04-14 03:54:00,
2013-04-13 23:59:00,52.9,28.5,29.93,NNW,338,1.1,1.1,39,0.00,,,0.00,WUHU216HW,2013-04-14 03:59:00,